Meteo Giornale » Osservazioni meteo Russia » Nizhny Novgorod/Strigino
ore: 06:00 - Osservazioni Meteo Nizhny Novgorod/Strigino
Lat. 56° 19' N Lon. 44° 0' E Alt. metri s.l.m.
11 °C
Foschia
Temp. 24 Ore
10 °C
17 °C
Nord
3.6 Km/h
Dew point 11 °C
Umidità 100 %
Visibilità 1 Km
Il sole sorge alle ore 05:07
Il sole tramonta alle ore 19:00
| Data e Ora | Cielo e Fenomeni | T °C | DP °C | Um. % | Pres. hPa | Vis. km | Vento km/h | |
|---|---|---|---|---|---|---|---|---|
| Oggi h: 06:00 | Foschia | 11 | 11 | 100 | 1018 | 1 | N 3.6 | |
| Oggi h: 05:37 | Banco di nebbia | 11 | 11 | 100 | 1018 | 0.25 | N 7.2 | |
| Oggi h: 05:30 | Nebbia | 11 | 11 | 100 | 1018 | 0.15 | N 7.2 | |
| Oggi h: 05:00 | Nebbia | 11 | 11 | 100 | 1018 | 0.1 | N 3.6 | |
| Oggi h: 04:53 | Nebbia | 11 | 11 | 100 | 1018 | 0.15 | N 3.6 | |
| Oggi h: 04:30 | Nebbia | 11 | 11 | 100 | 1018 | 0.2 | N 7.2 | |
| Oggi h: 04:20 | Nebbia | 11 | 11 | 100 | 1018 | 0.25 | N 3.6 | |
| Oggi h: 04:01 | Nebbia | 10 | 10 | 100 | 1018 | 0.15 | N 3.6 | |
| Oggi h: 04:00 | Nebbia | 10 | 10 | 100 | 1018 | 0.15 | N 3.6 | |
| Oggi h: 03:30 | Nebbia | 11 | 11 | 100 | 1018 | 0.2 | N 3.6 | |
| Oggi h: 03:00 | Banco di nebbia | 10 | 10 | 100 | 1018 | 0.35 | N 3.6 | |
| Oggi h: 02:43 | Banco di nebbia | 10 | 10 | 100 | 1018 | 0.35 | N 3.6 | |
| Oggi h: 02:30 | Banco di nebbia | 10 | 10 | 100 | 1018 | 0.9 | N 3.6 | |
| Oggi h: 02:00 | Banco di nebbia | 10 | 10 | 100 | 1018 | 0.9 | N 3.6 | |
| Oggi h: 01:30 | Banco di nebbia | 10 | 10 | 100 | 1018 | 0.2 | N 3.6 | |
| Oggi h: 01:00 | Banco di nebbia | 11 | 11 | 100 | 1018 | 0.25 | N 3.6 | |
| Oggi h: 00:53 | Banco di nebbia | 11 | 11 | 100 | 1018 | 0.25 | N 3.6 | |
| Oggi h: 00:30 | Nebbia | 11 | 11 | 100 | 1018 | 0.25 | N 3.6 | |
| Oggi h: 00:13 | Nebbia | 11 | 11 | 100 | 1018 | 0.15 | N 3.6 | |
| Oggi h: 00:09 | Nebbia | 11 | 11 | 100 | 1018 | 0.15 | N 3.6 | |
| Oggi h: 00:00 | Foschia | 11 | 10 | 93 | 1018 | 2 | N 3.6 | |
| Ieri h: 23:51 | Nebbia | 11 | 11 | 100 | 1018 | 0.35 | N 3.6 | |
| Ieri h: 23:50 | Banco di nebbia | 11 | 11 | 100 | 1018 | 0.35 | N 3.6 | |
| Ieri h: 23:30 | Nebbia a tratti | 11 | 11 | 100 | 1018 | 0.35 | N 3.6 | |
| Ieri h: 23:26 | Nebbia | 11 | 11 | 100 | 1018 | 0.4 | N 3.6 | |
| Ieri h: 23:25 | Nebbia | 11 | 11 | 100 | 1018 | 0.4 | N 3.6 | |
| Ieri h: 23:21 | Nebbia a tratti | 11 | 11 | 100 | 1018 | 0.4 | N 3.6 | |
| Ieri h: 23:00 | Nebbia a tratti | 11 | 11 | 100 | 1018 | 0.15 | N 3.6 | |
| Ieri h: 22:47 | Nebbia a tratti | 11 | 11 | 100 | 1018 | 0.15 | N 3.6 | |
| Ieri h: 22:44 | Nebbia a tratti | 11 | 11 | 100 | 1018 | 0.25 | N 3.6 | |
| Ieri h: 22:32 | Banco di nebbia | 12 | 12 | 100 | 1018 | 0.2 | N 3.6 | |
| Ieri h: 22:30 | Nebbia | 11 | 11 | 100 | 1018 | 0.15 | N 3.6 | |
| Ieri h: 22:09 | Banco di nebbia | 12 | 11 | 93 | 1018 | 0.3 | N 3.6 | |
| Ieri h: 22:00 | Banco di nebbia | 12 | 12 | 100 | 1018 | 0.2 | N 3.6 | |
| Ieri h: 21:45 | Nebbia | 12 | 12 | 100 | 1018 | 0.2 | N 3.6 | |
| Ieri h: 21:36 | Nebbia | 12 | 11 | 93 | 1018 | 0.2 | N 3.6 | |
| Ieri h: 21:30 | Nebbia | 12 | 12 | 100 | 1018 | 0.2 | N 3.6 | |
| Ieri h: 21:20 | Nebbia | 12 | 12 | 100 | 1017 | 0.2 | N 3.6 | |
| Ieri h: 21:00 | Banco di nebbia | 12 | 12 | 100 | 1017 | 0.15 | N 0 | |
| Ieri h: 20:30 | Banco di nebbia | 12 | 12 | 100 | 1017 | 0.1 | N 0 | |
| Ieri h: 20:00 | Nebbia | 13 | 13 | 100 | 1017 | 0.3 | N 3.6 | |
| Ieri h: 19:48 | Nebbia | 13 | 13 | 100 | 1017 | 0.65 | N 3.6 | |
| Ieri h: 19:47 | Foschia | 13 | 13 | 100 | 1017 | 1 | N 3.6 | |
| Ieri h: 19:30 | Banco di nebbia | 14 | 13 | 93 | 1017 | 0.45 | N 3.6 | |
| Ieri h: 19:00 | Nebbia | 15 | 14 | 93 | 1017 | 9 | N 3.6 | |
| Ieri h: 18:30 | Sereno | 16 | 14 | 87 | 1017 | 10 | N 0 | |
| Ieri h: 18:00 | Molto Nuvoloso | 17 | 14 | 82 | 1017 | 10 | N 7.2 | |
| Ieri h: 17:30 | Coperto | 16 | 14 | 87 | 1017 | 10 | N 7.2 | |
| Ieri h: 17:00 | Coperto | 16 | 14 | 87 | 1017 | 10 | O 10.8 | |
| Ieri h: 16:30 | Coperto | 17 | 14 | 82 | 1017 | 10 | O 10.8 | |
| Ieri h: 16:00 | Coperto | 17 | 14 | 82 | 1017 | 10 | N 7.2 | |
| Ieri h: 15:30 | Coperto | 16 | 13 | 82 | 1017 | 10 | N 3.6 | |
| Ieri h: 15:00 | Coperto | 16 | 13 | 82 | 1017 | 10 | N 3.6 | |
| Ieri h: 14:30 | Coperto | 15 | 13 | 87 | 1017 | 10 | N 3.6 | |
| Ieri h: 14:00 | Pioggia | 15 | 13 | 87 | 1017 | 10 | N 7.2 | |
| Ieri h: 13:30 | Pioggia | 14 | 12 | 87 | 1018 | 10 | S 10.8 | |
| Ieri h: 13:00 | Molto Nuvoloso | 15 | 12 | 82 | 1018 | 10 | S/SO 14.4 | |
| Ieri h: 12:30 | Molto Nuvoloso | 15 | 11 | 76 | 1018 | 10 | S/SO 14.4 | |
| Ieri h: 12:00 | Pioggia | 15 | 11 | 76 | 1018 | 10 | S 18 | |
| Ieri h: 11:30 | Pioggia | 15 | 13 | 87 | 1018 | 10 | S 14.4 | |
| Ieri h: 11:00 | Pioggia | 15 | 13 | 87 | 1018 | 10 | S 14.4 | |
| Ieri h: 10:30 | Pioggia | 16 | 13 | 82 | 1018 | 10 | S 14.4 | |
| Ieri h: 10:00 | Pioggia | 15 | 13 | 87 | 1018 | 10 | S 10.8 | |
| Ieri h: 09:30 | Pioggia | 15 | 13 | 87 | 1018 | 10 | S 10.8 | |
| Ieri h: 09:00 | Pioggia | 14 | 12 | 87 | 1018 | 10 | S/SE 10.8 | |
| Ieri h: 08:30 | Pioggia | 14 | 12 | 87 | 1019 | 10 | S/SE 10.8 | |
| Ieri h: 08:00 | Pioggia | 14 | 12 | 87 | 1019 | 10 | N 7.2 | |
| Ieri h: 07:30 | Pioggia | 13 | 12 | 93 | 1019 | 10 | N 7.2 | |
| Ieri h: 07:00 | Pioggia | 14 | 12 | 87 | 1020 | 10 | N 7.2 | |



